This is the latest recevied weather packets stored in our database for station/object HB9KBJ-8. If no packets are shown the sender has not sent any weather packets the latest 1 day(s).
| Time | Temp. | Humidity | Pressure | Rain* | Wind** | Luminosity | Snow |
|---|---|---|---|---|---|---|---|
| 1778046748 | 9.44° C | 88% | 1006.9 hPa | 0 mm | - | 98 W/m² | - |
| 1778046446 | 9.44° C | 88% | 1006.9 hPa | 0 mm | - | 84 W/m² | - |
| 1778046143 | 9.44° C | 88% | 1007 hPa | 0 mm | - | 79 W/m² | - |
| 1778045841 | 9.44° C | 88% | 1007 hPa | 0 mm | - | 74 W/m² | - |
| 1778045542 | 8.89° C | 88% | 1007 hPa | 0 mm | - | 69 W/m² | - |
| 1778044937 | 8.89° C | 88% | 1007.1 hPa | 0 mm | - | 62 W/m² | - |
| 1778044643 | 8.89° C | 88% | 1007.1 hPa | 0 mm | - | 58 W/m² | - |
| 1778044043 | 8.89° C | 88% | 1007.2 hPa | 0 mm | - | 47 W/m² | - |
| 1778043743 | 8.89° C | 92% | 1007 hPa | 0 mm | - | 44 W/m² | - |
| 1778043440 | 8.89° C | 88% | 1007.1 hPa | 0 mm | - | 39 W/m² | - |
| 1778042836 | 8.89° C | 88% | 1007 hPa | 0 mm | - | 26 W/m² | - |
| 1778042549 | 8.89° C | 88% | 1007 hPa | 0 mm | - | 23 W/m² | - |
| 1778042243 | 8.89° C | 88% | 1007 hPa | 0 mm | - | 19 W/m² | - |
| 1778041936 | 9.44° C | 88% | 1007 hPa | 0 mm | - | 16 W/m² | - |
| 1778041339 | 8.89° C | 88% | 1007 hPa | 0 mm | - | 9 W/m² | - |
| 1778041033 | 9.44° C | 88% | 1007.1 hPa | 0 mm | - | 5 W/m² | - |
| 1778040736 | 9.44° C | 88% | 1007 hPa | 0 mm | - | 0 W/m² | - |
| 1778040451 | 9.44° C | 88% | 1007 hPa | 0 mm | - | 0 W/m² | - |
| 1778040139 | 9.44° C | 88% | 1007 hPa | 0 mm | - | 0 W/m² | - |
| 1778039838 | 9.44° C | 88% | 1007 hPa | 0 mm | - | 0 W/m² | - |
| 1778039535 | 9.44° C | 88% | 1007.2 hPa | 0 mm | - | 0 W/m² | - |
| 1778039235 | 9.44° C | 88% | 1007.2 hPa | 0 mm | - | 0 W/m² | - |
| 1778038638 | 9.44° C | 88% | 1007.3 hPa | 0 mm | - | 0 W/m² | - |
| 1778038339 | 8.89° C | 88% | 1007.3 hPa | 0 mm | - | 0 W/m² | - |
| 1778038037 | 8.89° C | 88% | 1007.4 hPa | 0 mm | - | 0 W/m² | - |
* Rain latest hour (hover to see other rain measurements)
** Current wind speed in m/s (hover to see current wind gust speed)